SL-14 R/B, 22652

Orbit data source: Space-Track

SL-14 R/B, 22652 is space debris in LEO originally from a launch on Tue, 11 May 1993 UTC launched from the Plesetsk Missile And Space Complex (PKMTR). Debris objects in space refer to the collection of defunct objects orbiting the Earth. Examples of debris include non-operational satellites, rocket bodies, and fragments generated from explosions, collisions, or faulty payload assembly.

Loading next visibility...
Identifier
22652, 1993-030G
Orbit
LEO
Last TLE update
15 hours ago
Origin
Manufacturer
Yuzhnoe
Mission
Spacecraft
Bus & Motor
S5M, Unknown motor
Mass
1,600 kg wet, 1,600 kg dry
Launch date (UTC)
1993-05-11 (32 years ago)
Launch vehicle
Unknown
Launch site
Plesetsk Missile And Space Complex (PKMTR)
Object type
Payload
Rocket body
Debris
Shape & HBR
Cyl, 2.7 m
Radar Cross Section
7.351 m², Medium (>0.1 m² and < 1m²)

Expand to show TLE details & history

TLE from 15 hours ago
0 SL-14 R/B
1 22652U 93030G   25181.75146561  .00000004  00000-0 -35977-4 0  9994
2 22652  82.5860 188.5143 0008209  26.7104 145.9233 12.63191166481665
Epoch: 2025-06-30T18:02Z
TLE epoch observation values (Epoch: 2025-06-30T18:02:06.628Z)
Latitude
7.18501°
Longitude
177.99462°
Altitude
1,417.187 km
Speed
7.15 km/s
True Right ascension
00h 30m 18s
True Declination
7° 08' 46"
Sunlit
Object was in daylight at epoch
Visualization orbit readout
Latitude
17.0719°
Longitude
176.2479°
Altitude
1,416.648 km
Speed
7.151 km/s
Apparent Right ascension
03h 07m 07s
Apparent Declination
-16° 38' 39"
Sunlit
Object is in daylight
Visualization observer readout
Local Sidereal Time
20:49:38
Azimuth
100.256° ESE
Elevation
-13.873°
Doppler factor
1
Orbital elements
Apogee altitude
1,413.511 km
Perigee altitude
1,400.729 km
Semi-major axis
7,785.257 km
Eccentricity
0.00082
Inclination
82.586°
RAAN
188.5143°
Arg. of periapsis
26.7104°
True anomaly
Unknown
Mean anomaly
145.9233°
Eccentric anomaly
Unknown
Mean motion
3.15961 °/min
Orbital period
113.94 mins
BSTAR
-0.000035977
Loading maneuver chart data...
Loading SW <> Apogee altitude chart data...
Loading historical data...
Loading historical data...
Loading historical data...
Loading historical data...
Loading historical data...
Loading historical data...
Loading historical data...

SL-14 R/B Visibility forecast

Observer location: undefined°, undefined°

Span
Click to sort rows by Start time (UTC) header in descending order
Start Az.
Max El. time (UTC)
Max El. Az.
Max El.
End time (UTC)
End Az.
12 mins2025-07-01 10:50:23.750Z16.017° NNE2025-07-01 10:56:23.750Z64.241° ENE23.294°2025-07-01 11:02:23.750Z116.251° SE
15 mins2025-07-01 12:45:23.750Z345.034° N2025-07-01 12:52:23.750Z263.543° W42.375°2025-07-01 13:00:23.750Z188.24° SSW
10 mins2025-07-01 23:40:23.750Z123.263° SE2025-07-01 23:45:23.750Z79.016° E22.55°2025-07-01 23:50:23.750Z37.198° NE
15 mins2025-07-02 01:32:23.750Z200.768° SSW2025-07-02 01:39:23.750Z283.384° WNW42.292°2025-07-02 01:47:23.750Z2.037° NNE
|